[[{"header":{"parameterUnit":"m.s-1","parameterCategory":1,"la1":30.2991,"la2":30.254,"lo1":-89.0895,"lo2":-89.0444,"dy":0.0017,"dx":0.0017,"nx":28,"ny":28,"refTime":"2025-03-13T21:00:00:Z","depth":0,"parameterNumber":2,"parameterNumberName":"U-component_of_WINDS"},"data":[0,0,0,0,0,0,0,0,0,0,0,0,0,0,0,0,0,0,0,0,0,0,0,0,0,0,0,0,0,0,0,0,0,0,0,0,0,0,0,0,0,0,0,0,0,0,0,0,0,0,0,0,0,0,0,0,0,0,-1.5825,-1.5825,0,-1.5869,-1.5869,-1.587,-1.5892,-1.5892,-1.5892,-1.5892,-1.5934,-1.5935,-1.5936,0,0,0,0,0,0,0,0,0,0,0,0,0,-1.5758,-1.5759,-1.5825,-1.5826,-1.5826,-1.5869,-1.5869,-1.587,-1.5892,-1.5892,-1.5892,-1.5892,-1.5933,-1.5935,-1.5936,0,0,0,0,0,0,0,0,0,0,0,0,0,-1.5793,-1.5759,-1.5825,-1.5842,-1.5844,-1.5869,-1.5869,-1.587,-1.5892,-1.5892,-1.5892,-1.5892,-1.5933,-1.5935,-1.5936,-1.5945,0,0,-1.5941,-1.5942,0,0,0,0,0,0,0,0,-1.5791,-1.5795,-1.5839,-1.5841,-1.5844,-1.5875,-1.5861,-1.5895,-1.5892,-1.5874,-1.5892,-1.5892,-1.5914,-1.5917,-1.5925,-1.5947,-1.5949,-1.5941,-1.5942,-1.5943,-1.5943,0,0,0,0,0,0,0,-1.5788,-1.5793,-1.5842,-1.584,-1.5842,-1.5847,-1.5852,-1.5868,-1.5893,-1.5875,-1.5877,-1.5882,-1.5915,-1.5924,-1.5926,-1.595,-1.5941,-1.5943,-1.5944,-1.5944,-1.5982,-1.5982,0,0,0,0,0,0,-1.5783,-1.5791,-1.5841,-1.5844,-1.5817,-1.5848,-1.5854,-1.5865,-1.5893,-1.5897,-1.5882,-1.5883,-1.5921,-1.5924,-1.5928,-1.5941,-1.5943,-1.5944,-1.5945,-1.5982,-1.5982,-1.5982,0,0,0,0,0,0,-1.5782,-1.5788,-1.5839,-1.5818,-1.5825,-1.585,-1.5862,-1.5866,-1.5874,-1.5898,-1.5902,-1.5886,-1.5921,-1.5926,-1.5941,-1.5943,-1.5945,-1.5947,-1.5982,-1.5982,-1.5982,-1.5967,0,0,0,0,0,0,-1.578,-1.5787,-1.5791,-1.5818,-1.5826,-1.5852,-1.5862,-1.5867,-1.5877,-1.5879,-1.5903,-1.5907,-1.5921,-1.5939,-1.5943,-1.5945,-1.5948,-1.5982,-1.5982,-1.5982,-1.5967,-1.5966,-1.5966,0,0,0,0,0,-1.5777,-1.5784,-1.5791,-1.5797,-1.5832,-1.5852,-1.5857,-1.5874,-1.5877,-1.5882,-1.5897,-1.5906,-1.5942,-1.594,-1.5945,-1.5948,-1.5982,-1.5982,-1.5982,-1.5968,-1.5967,-1.5966,0,0,0,0,0,0,-1.5756,-1.5788,-1.5796,-1.5812,-1.583,-1.5856,-1.5862,-1.5872,-1.5888,-1.5889,-1.5909,-1.5914,-1.5928,-1.5939,-1.5937,-1.5958,-1.5963,-1.5964,-1.595,-1.5949,-1.5949,-1.5945,-1.5949,0,0,0,0,0,-1.5753,-1.5768,-1.5795,-1.5806,-1.5815,-1.5837,-1.5846,-1.5859,-1.5877,-1.5884,-1.59,-1.5917,-1.5932,-1.5941,-1.5956,-1.5969,-1.5975,-1.5974,-1.5973,-1.5972,-1.5972,-1.598,-1.598,-1.5982,-1.5982,-1.5982,0,0,-1.5747,-1.5767,-1.5775,-1.5803,-1.5818,-1.5832,-1.5843,-1.5857,-1.5868,-1.5886,-1.5902,-1.5915,-1.5934,-1.5949,-1.5956,-1.5959,-1.5973,-1.5972,-1.5971,-1.5972,-1.598,-1.598,-1.598,-1.5983,-1.5983,-1.5983,0,0,-1.5744,-1.576,-1.5772,-1.5787,-1.581,-1.5825,-1.5828,-1.5853,-1.5863,-1.588,-1.5893,-1.5906,-1.5931,-1.5945,-1.5955,-1.5958,-1.5967,-1.5962,-1.5958,-1.5965,-1.5965,-1.5965,-1.5966,-1.5966,-1.5963,-1.5963,-1.5963,0,-1.5733,-1.5756,-1.5776,-1.579,-1.5802,-1.5821,-1.5832,-1.5845,-1.5871,-1.5879,-1.5882,-1.5915,-1.593,-1.5948,-1.5949,-1.5956,-1.596,-1.596,-1.5964,-1.5964,-1.5964,-1.5965,-1.5966,-1.5962,-1.5962,-1.5962,-1.5962,0,-1.5742,-1.5758,-1.5764,-1.5791,-1.5804,-1.5816,-1.5837,-1.5848,-1.5859,-1.5873,-1.589,-1.5908,-1.5928,-1.5933,-1.5943,-1.5953,-1.5954,-1.596,-1.5965,-1.5963,-1.5964,-1.5965,-1.5961,-1.5961,-1.5962,-1.5962,0,0,-1.5725,-1.5764,-1.5766,-1.5778,-1.5806,-1.5818,-1.5831,-1.5852,-1.586,-1.5878,-1.5889,-1.5911,-1.5917,-1.5929,-1.5941,-1.5948,-1.5949,-1.5953,-1.5954,-1.5952,-1.5961,-1.5956,-1.5956,-1.5956,-1.5956,-1.5956,-1.5959,0,-1.5726,-1.5752,-1.5771,-1.579,-1.5804,-1.5823,-1.5834,-1.5852,-1.5866,-1.588,-1.5895,-1.591,-1.5917,-1.5924,-1.5932,-1.5947,-1.5951,-1.5948,-1.5966,-1.5966,-1.596,-1.5957,-1.5952,-1.5954,-1.596,-1.596,-1.596,0,-1.5729,-1.5748,-1.5769,-1.5795,-1.5802,-1.5813,-1.5833,-1.5847,-1.5867,-1.5877,-1.589,-1.5903,-1.5918,-1.5922,-1.5942,-1.5939,-1.5948,-1.5956,-1.5957,-1.5959,-1.5963,-1.5959,-1.5955,-1.5955,-1.5962,-1.5961,-1.5961,0,-1.5715,-1.5745,-1.5762,-1.5772,-1.5803,-1.581,-1.5823,-1.5844,-1.5855,-1.5873,-1.5881,-1.5899,-1.5909,-1.5923,-1.594,-1.5942,-1.5959,-1.5964,-1.5967,-1.5966,-1.5969,-1.5968,-1.5966,-1.5975,-1.5975,-1.5975,-1.5975,0,-1.5713,-1.5725,-1.5756,-1.5766,-1.578,-1.5801,-1.5814,-1.5829,-1.5847,-1.586,-1.5876,-1.5887,-1.591,-1.5924,-1.5937,-1.5952,-1.5956,-1.5964,-1.5968,-1.5963,-1.5962,-1.5968,-1.5968,-1.5975,-1.5975,-1.5975,-1.5975,0,-1.5699,-1.5721,-1.574,-1.5769,-1.5776,-1.5785,-1.5809,-1.5819,-1.5835,-1.5851,-1.5856,-1.5879,-1.5897,-1.5916,-1.5939,-1.5948,-1.5962,-1.5967,-1.5955,-1.5957,-1.5959,-1.5958,-1.5961,-1.5962,-1.597,-1.597,-1.5969,0,-1.5697,-1.5706,-1.5737,-1.5747,-1.5761,-1.5777,-1.5789,-1.5811,-1.5822,-1.5847,-1.5854,-1.5873,-1.5889,-1.5916,-1.5935,-1.5953,-1.5958,-1.5958,-1.5961,-1.5956,-1.5958,-1.5957,-1.5959,-1.5957,-1.5956,-1.5956,-1.5956,0,-1.5689,-1.57,-1.5717,-1.5739,-1.5753,-1.5771,-1.5789,-1.5796,-1.5821,-1.5834,-1.5853,-1.5865,-1.589,-1.5909,-1.5929,-1.5942,-1.5953,-1.5955,-1.5957,-1.5952,-1.5945,-1.5949,-1.5953,-1.5955,-1.5955,-1.5955,-1.5955,-1.5955,-1.5681,-1.5691,-1.5714,-1.5733,-1.575,-1.5767,-1.5778,-1.5796,-1.5812,-1.5835,-1.5846,-1.5865,-1.5886,-1.5915,-1.5927,-1.5942,-1.5945,-1.5947,-1.5948,-1.5948,-1.5947,-1.5943,-1.5946,-1.5946,-1.5946,-1.5946,-1.5946,0,-1.5675,-1.5691,-1.5709,-1.5734,-1.5749,-1.576,-1.5781,-1.5793,-1.581,-1.5829,-1.5845,-1.5867,-1.5885,-1.5906,-1.5925,-1.5933,-1.5939,-1.5937,-1.5937,-1.594,-1.5943,-1.5939,-1.5933,-1.5933,-1.5933,-1.5933,-1.5933,-1.5933,-1.5673,-1.5691,-1.5704,-1.573,-1.5746,-1.5766,-1.5777,-1.5792,-1.5808,-1.5832,-1.5848,-1.5862,-1.5881,-1.5903,-1.592,-1.5926,-1.5932,-1.5929,-1.5936,-1.5938,-1.5939,-1.594,-1.5937,-1.593,-1.593,-1.5932,-1.5932,-1.5932]},{"header":{"parameterUnit":"m.s-1","parameterCategory":1,"la1":30.2991,"la2":30.254,"lo1":-89.0895,"lo2":-89.0444,"dy":0.0017,"dx":0.0017,"nx":28,"ny":28,"refTime":"2025-03-13T21:00:00:Z","depth":0,"parameterNumber":3,"parameterNumberName":"V-component_of_WINDS"},"data":[0,0,0,0,0,0,0,0,0,0,0,0,0,0,0,0,0,0,0,0,0,0,0,0,0,0,0,0,0,0,0,0,0,0,0,0,0,0,0,0,0,0,0,0,0,0,0,0,0,0,0,0,0,0,0,0,0,0,3.397,3.3972,0,3.4146,3.4148,3.415,3.4203,3.4202,3.4201,3.42,3.438,3.4385,3.4391,0,0,0,0,0,0,0,0,0,0,0,0,0,3.368,3.3685,3.397,3.3972,3.3974,3.4146,3.4148,3.4151,3.4203,3.4202,3.4201,3.42,3.4378,3.4384,3.4391,0,0,0,0,0,0,0,0,0,0,0,0,0,3.3826,3.3686,3.397,3.4021,3.4028,3.4145,3.4148,3.4151,3.4203,3.4202,3.42,3.4199,3.4376,3.4384,3.4392,3.4471,0,0,3.4418,3.4421,0,0,0,0,0,0,0,0,3.3817,3.3836,3.4011,3.4018,3.4025,3.4151,3.4112,3.4259,3.4204,3.4136,3.42,3.4199,3.4305,3.4319,3.4355,3.448,3.4487,3.4419,3.4424,3.4427,3.443,0,0,0,0,0,0,0,3.3807,3.3829,3.404,3.4014,3.4022,3.4036,3.4055,3.414,3.4226,3.4142,3.4146,3.4167,3.4308,3.4347,3.4359,3.449,3.4418,3.4426,3.4431,3.4434,3.4691,3.4692,0,0,0,0,0,0,3.3788,3.382,3.4034,3.4045,3.3916,3.4042,3.4064,3.4112,3.4225,3.4241,3.4168,3.4168,3.4333,3.4349,3.4366,3.4468,3.4427,3.4435,3.444,3.4689,3.4691,3.4693,0,0,0,0,0,0,3.3782,3.3807,3.4027,3.3934,3.3963,3.4049,3.4103,3.4116,3.4155,3.4244,3.426,3.4191,3.4332,3.4354,3.4445,3.4475,3.4439,3.4447,3.4687,3.469,3.4692,3.467,0,0,0,0,0,0,3.3773,3.3804,3.3835,3.3934,3.3968,3.4103,3.4104,3.4121,3.4169,3.4172,3.4271,3.4286,3.4333,3.4432,3.4454,3.4486,3.4453,3.4685,3.4688,3.4691,3.4669,3.4672,3.4675,0,0,0,0,0,3.3763,3.3821,3.3836,3.3862,3.4008,3.4105,3.4124,3.4178,3.4171,3.4203,3.4261,3.4282,3.4468,3.4441,3.4466,3.45,3.4683,3.4687,3.4691,3.4668,3.4671,3.4675,0,0,0,0,0,0,3.3723,3.3835,3.3853,3.3945,3.4015,3.4113,3.4155,3.418,3.4253,3.4252,3.4315,3.4337,3.4424,3.4471,3.444,3.4584,3.4576,3.4585,3.455,3.4554,3.4557,3.4544,3.446,0,0,0,0,0,3.3725,3.3794,3.3888,3.3961,3.3995,3.4069,3.4113,3.4149,3.4223,3.4253,3.4318,3.4389,3.4464,3.4512,3.4585,3.4676,3.4699,3.4712,3.4715,3.4717,3.4724,3.4777,3.4785,3.4706,3.4706,3.4706,0,0,3.373,3.38,3.3839,3.3955,3.4013,3.4084,3.4094,3.4167,3.4221,3.4264,3.4355,3.4405,3.4489,3.4581,3.4624,3.4623,3.4751,3.4722,3.4722,3.4729,3.4782,3.4789,3.4796,3.4709,3.4708,3.4708,0,0,3.3775,3.3834,3.3902,3.396,3.4049,3.4098,3.4114,3.4209,3.4244,3.4336,3.437,3.4435,3.4561,3.4621,3.4667,3.4736,3.4759,3.4758,3.4773,3.4824,3.4831,3.4836,3.4863,3.4871,3.4765,3.4765,3.4765,0,3.377,3.3878,3.3934,3.4007,3.4057,3.41,3.417,3.4223,3.4331,3.4365,3.4362,3.4523,3.4582,3.4689,3.4706,3.4742,3.4764,3.4747,3.4825,3.4832,3.4838,3.4863,3.4873,3.4764,3.4764,3.4764,3.4764,0,3.3868,3.3942,3.3986,3.409,3.4145,3.4216,3.4283,3.4332,3.4363,3.4412,3.4506,3.4579,3.4669,3.4697,3.4727,3.4809,3.4805,3.4813,3.4806,3.4844,3.4869,3.4879,3.4763,3.4764,3.4764,3.4764,0,0,3.3894,3.4028,3.4043,3.4091,3.4192,3.4251,3.4324,3.4412,3.4454,3.4526,3.459,3.4697,3.4705,3.4758,3.4795,3.484,3.4892,3.4843,3.4845,3.485,3.4988,3.4983,3.4993,3.4907,3.4909,3.4911,3.4982,0,3.3953,3.4085,3.4138,3.4246,3.4316,3.4358,3.4422,3.4491,3.4539,3.4606,3.4659,3.4735,3.4739,3.4771,3.4817,3.4876,3.4921,3.4871,3.4968,3.4971,3.4947,3.5006,3.5,3.5063,3.4992,3.4993,3.4995,0,3.404,3.4114,3.4229,3.4322,3.4354,3.441,3.4496,3.4559,3.4638,3.467,3.473,3.4765,3.4844,3.4832,3.4942,3.4907,3.495,3.4985,3.4989,3.5001,3.4985,3.5021,3.5085,3.5095,3.501,3.5009,3.5008,0,3.4049,3.4177,3.4263,3.4302,3.4413,3.4452,3.45,3.4578,3.4628,3.4703,3.4737,3.482,3.4865,3.4929,3.4986,3.4972,3.5092,3.5084,3.5121,3.512,3.5145,3.5143,3.5218,3.5171,3.5171,3.517,3.517,0,3.411,3.4179,3.4269,3.4321,3.44,3.446,3.4537,3.4587,3.4657,3.4721,3.4762,3.4821,3.4892,3.4961,3.5006,3.5091,3.5111,3.514,3.5151,3.5137,3.5133,3.5167,3.5164,3.5173,3.5172,3.5172,3.5171,0,3.4134,3.4197,3.4293,3.439,3.4416,3.447,3.4553,3.4607,3.4657,3.4737,3.476,3.4839,3.4922,3.4985,3.5092,3.5122,3.5214,3.5225,3.5187,3.5193,3.5228,3.5224,3.5328,3.5345,3.5284,3.5284,3.5285,0,3.417,3.4224,3.4327,3.4373,3.4421,3.4494,3.4545,3.4607,3.4659,3.4754,3.4796,3.4882,3.4954,3.5085,3.5152,3.5235,3.5249,3.528,3.5262,3.5246,3.5251,3.5248,3.5254,3.5282,3.5283,3.5283,3.5283,0,3.4227,3.4256,3.4328,3.4412,3.4473,3.4542,3.4611,3.4646,3.4721,3.4777,3.4863,3.4919,3.5029,3.5114,3.5204,3.5254,3.5282,3.5288,3.5302,3.5288,3.5265,3.5279,3.5195,3.5286,3.5285,3.5285,3.5285,3.5285,3.426,3.431,3.4391,3.4471,3.453,3.4594,3.4649,3.4707,3.4779,3.4873,3.4905,3.4994,3.5073,3.5197,3.5248,3.5318,3.5319,3.5338,3.5343,3.5347,3.5346,3.5252,3.5335,3.5335,3.5335,3.5335,3.5335,0,3.4321,3.4375,3.4447,3.4544,3.4607,3.4627,3.4705,3.4757,3.4834,3.4906,3.4976,3.5075,3.5158,3.5232,3.5319,3.5361,3.5376,3.5382,3.538,3.5392,3.534,3.5321,3.5369,3.5369,3.5369,3.5369,3.5369,3.5369,3.436,3.4447,3.4485,3.4602,3.4656,3.4743,3.4786,3.4846,3.4904,3.5012,3.5081,3.5129,3.5202,3.5295,3.5372,3.5392,3.5423,3.5425,3.5448,3.5399,3.5395,3.5391,3.5373,3.5431,3.5431,3.5494,3.5495,3.5495]}]]